Create Custom Reports and Graphics: Custom Report

Top of 22 - 10,067ft

Current Conditions

3/5/24 5:00 AM (-08:00)
Updated Every 15 Minutes
Temp 15.2 °F   4.0
WindChill -6.1 °F   5.9
RH 94 %   2
Dew Pt 13.7 °F   4.4
Wet Bulb 14.8 °F   4.0
Wind Dir SSW | 213 °
Wind Spd 33.0 mph   1.3
Wind Gust 41.3 mph   2.4
Daily Max Wind 41.6 mph   27.2
Time of Max Wind 0422
Max Wind Dir SSW | 212 °
Daily Max Temp 16.9 °F   5.2
Time of Max Temp 0303
Daily Min Temp 15.2 °F   4.1
Time of Min Temp 0453
Yest MinT 8.4 °F
Yest MaxT 18.8 °F
Yest MaxGst 68.8 mph
Calm: 0.0%
Calm: 0.0%

Last 7 Days

Top of 22 - 10,067ft

Hourly Data | America/Los_Angeles
as of 3/5/24 5:02 AM PST
Date & Time Temp (°F) WindChill (°F) RH (%) Dew Pt (°F) Wet Bulb (°F) Wind Dir (°) Wind Spd (mph) Wind Gust (mph) Wind Gst Dir (°) Daily Min Temp (°F) Daily Max Temp (°F) Daily Max Wind (mph)
3/5/24 - 0500 15.4 -5.8 94 14.0 15.0 SW | 214 33.2 41.6 SSW | 212 15.2 16.9 41.6
3/5/24 - 0400 16.7 -4.0 95 15.4 16.3 SW | 215 33.3 41.4 SSW | 211 16.0 16.9 41.4
3/5/24 - 0300 16.7 -3.2 95 15.5 16.4 SSW | 213 30.4 39.0 SSW | 211 16.0 16.9 41.1
3/5/24 - 0200 16.6 -3.2 95 15.4 16.3 SSW | 212 29.8 41.1 SSW | 208 16.0 16.7 41.1
3/5/24 - 0100 16.2 -4.4 94 14.9 15.9 SSW | 211 32.3 40.3 SSW | 211 16.0 16.5 40.3
3/5/24 - 0000 16.3 -3.8 94 15.0 16.0 SW | 217 30.6 41.9 SSW | 211 8.4 18.8 68.8
3/4/24 - 2300 17.2 -3.0 95 15.9 16.8 SW | 224 32.0 45.7 WSW | 237 8.4 18.8 68.8
3/4/24 - 2200 17.9 -2.0 95 16.8 17.6 SW | 218 32.1 43.4 SSW | 211 8.4 18.8 68.8
3/4/24 - 2100 18.3 -1.5 95 17.2 17.9 SW | 216 31.8 40.4 SSW | 212 8.4 18.8 68.8
3/4/24 - 2000 18.7 0.2 96 17.6 18.3 SSW | 211 27.6 38.7 SSW | 210 8.4 18.8 68.8
3/4/24 - 1900 18.6 1.4 96 17.5 18.2 SSW | 212 22.9 34.1 SSW | 209 8.4 18.7 68.8
3/4/24 - 1800 18.0 0.3 95 16.9 17.7 SW | 216 24.0 35.6 SSW | 209 8.4 18.5 68.8
3/4/24 - 1700 17.6 -1.0 95 16.5 17.3 SW | 214 26.6 35.6 SSW | 209 8.4 18.0 68.8
3/4/24 - 1600 16.5 -2.6 95 15.3 16.2 SSW | 208 26.8 40.9 SSW | 209 8.4 17.2 68.8
3/4/24 - 1500 16.2 -2.7 95 14.9 15.9 SSW | 206 26.0 41.8 SSW | 212 8.4 16.6 68.8
3/4/24 - 1400 16.2 -4.6 95 14.9 15.9 SSW | 205 33.0 43.9 SSW | 209 8.4 16.6 68.8
3/4/24 - 1300 15.8 -3.1 94 14.5 15.4 SSW | 205 25.2 39.5 SSW | 207 8.4 16.6 68.8
3/4/24 - 1200 14.2 -7.4 94 12.7 13.9 SSW | 209 33.3 47.8 SSW | 209 8.4 15.2 68.8
3/4/24 - 1100 11.9 -11.4 92 10.0 11.6 SSW | 209 36.3 49.7 SSW | 210 8.4 12.3 68.8
3/4/24 - 1000 11.3 -8.9 92 9.5 11.0 SSW | 203 24.8 49.1 SSW | 207 8.4 12.0 68.8
3/4/24 - 0900 9.3 -15.2 91 7.2 9.1 SSW | 203 37.1 54.2 SSW | 207 8.4 11.7 68.8
3/4/24 - 0800 8.6 -17.0 91 6.5 8.4 SSW | 205 41.3 56.2 SSW | 204 8.4 11.7 68.8
3/4/24 - 0700 9.0 -16.8 91 6.8 8.8 SSW | 205 42.3 53.1 SSW | 203 8.4 11.7 68.8
3/4/24 - 0600 10.6 -13.2 92 8.6 10.3 SSW | 206 36.2 54.4 SSW | 205 9.8 11.7 68.8
3/4/24 - 0500 11.1 -12.6 92 9.2 10.8 SSW | 210 37.0 46.8 SSW | 209 11.0 11.7 68.8
3/4/24 - 0400 11.3 -13.4 92 9.4 11.0 SW | 214 41.5 55.4 SSW | 211 11.2 11.7 68.8
3/4/24 - 0300 11.6 -12.6 92 9.8 11.4 SW | 214 40.4 58.2 SW | 216 11.4 11.7 68.8
3/4/24 - 0200 11.5 -14.3 92 9.7 11.3 SW | 215 47.9 66.3 SSW | 206 11.5 11.7 68.8
3/4/24 - 0100 11.6 -15.4 92 9.7 11.3 SW | 216 53.7 68.8 SW | 224 11.5 11.6 68.8
3/4/24 - 0000 11.5 -14.8 92 9.7 11.2 SW | 215 50.4 79.9 SW | 232 9.2 13.5 87.8
3/3/24 - 2300 11.5 -14.0 92 9.7 11.2 SSW | 213 46.0 83.7 SW | 230 9.2 13.5 87.8
3/3/24 - 2200 11.6 -13.1 92 9.8 11.3 SSW | 212 42.0 69.3 SW | 220 9.2 13.5 87.8
3/3/24 - 2100 11.7 -14.2 92 9.9 11.4 SW | 218 48.3 76.9 SW | 230 9.2 13.5 87.8
3/3/24 - 2000 11.8 -15.4 92 10.0 11.5 SW | 222 55.6 87.8 WSW | 238 9.2 13.5 87.8
3/3/24 - 1900 11.6 -14.6 92 9.8 11.4 SSW | 213 50.3 71.1 SW | 215 9.2 13.5 86.8
3/3/24 - 1800 12.2 -15.2 92 10.4 11.9 SW | 217 57.7 73.6 SW | 225 9.2 13.5 86.8
3/3/24 - 1700 12.3 -16.0 93 10.6 12.0 SW | 222 64.8 86.8 SW | 228 9.2 13.5 86.8
3/3/24 - 1600 12.1 -15.7 92 10.4 11.8 SW | 222 60.8 77.7 SSW | 206 9.2 13.5 77.7
3/3/24 - 1500 11.5 -15.7 92 9.8 11.3 SW | 220 55.5 74.9 SW | 219 9.2 13.5 75.6
3/3/24 - 1400 11.4 -15.2 92 9.6 11.1 SW | 215 51.5 75.6 SW | 229 9.2 13.5 75.6
3/3/24 - 1300 10.9 -13.1 92 9.0 10.6 SW | 218 37.7 57.5 SW | 220 9.2 13.5 57.5
3/3/24 - 1200 10.5 -9.0 92 8.6 10.3 SW | 218 22.3 32.6 SW | 224 9.2 13.5 49.8
3/3/24 - 1100 10.5 -9.2 92 8.6 10.3 SW | 220 22.7 33.0 SW | 226 9.2 13.5 49.8
3/3/24 - 1000 10.5 -10.8 92 8.6 10.2 SW | 220 27.2 43.1 WSW | 239 9.2 13.5 49.8
3/3/24 - 0900 10.8 -10.6 92 8.8 10.5 SW | 221 27.6 44.7 WSW | 238 9.2 13.5 49.8
3/3/24 - 0800 11.1 -8.5 92 9.3 10.9 SW | 218 22.9 39.2 WSW | 237 9.2 13.5 49.8
3/3/24 - 0700 10.7 -5.9 92 8.8 10.5 SW | 215 15.6 40.8 SW | 227 9.2 13.5 49.8
3/3/24 - 0600 10.4 -6.3 92 8.5 10.2 SW | 216 15.4 30.4 WSW | 241 9.2 13.5 49.8
3/3/24 - 0500 9.6 -9.6 92 7.6 9.4 SW | 218 20.5 41.0 SW | 222 9.2 13.5 49.8
3/3/24 - 0400 9.8 -11.1 91 7.8 9.6 SW | 221 25.4 41.5 SW | 234 9.2 13.5 49.8
3/3/24 - 0300 10.3 -11.5 92 8.3 10.1 SW | 223 28.8 49.8 SW | 233 9.8 13.5 49.8
3/3/24 - 0200 11.6 -8.6 92 9.8 11.4 SW | 230 25.3 49.6 SW | 231 11.1 13.5 49.6
3/3/24 - 0100 12.7 -5.7 92 10.9 12.4 SW | 229 21.0 48.6 W | 269 12.1 13.5 48.6
3/3/24 - 0000 13.3 -5.4 93 11.6 13.0 SW | 228 22.1 48.8 WSW | 240 9.0 19.1 138.2
3/2/24 - 2300 12.5 -8.9 93 10.8 12.2 SW | 221 30.0 72.5 WSW | 242 9.0 19.1 138.2
3/2/24 - 2200 11.7 -9.0 92 9.9 11.5 SSW | 210 26.8 94.2 SW | 229 9.0 19.1 138.2
3/2/24 - 2100 11.7 -6.3 92 9.9 11.4 SSW | 210 19.2 59.1 WSW | 238 9.0 19.1 138.2
3/2/24 - 2000 10.9 -9.4 92 9.0 10.6 SW | 218 24.7 58.9 SW | 236 9.0 19.1 138.2
3/2/24 - 1900 9.8 -14.4 92 7.8 9.6 SSW | 212 36.6 75.2 SW | 230 9.0 19.1 138.2
3/2/24 - 1800 9.5 -14.2 91 7.4 9.2 SSW | 204 34.3 72.9 SE | 135 9.0 19.1 138.2
3/2/24 - 1700 9.6 -15.3 91 7.6 9.4 SW | 220 39.5 78.3 WSW | 258 9.4 19.1 138.2
3/2/24 - 1600 9.8 -16.4 91 7.8 9.6 SW | 220 45.7 85.3 WSW | 248 9.5 19.1 138.2
3/2/24 - 1500 9.7 -15.1 91 7.7 9.5 SW | 227 39.4 84.0 WSW | 238 9.5 19.1 138.2
3/2/24 - 1400 10.3 -13.0 92 8.4 10.1 SW | 227 34.3 90.5 SW | 228 9.5 19.1 138.2
3/2/24 - 1300 9.7 -13.2 91 7.6 9.5 SW | 225 31.8 89.8 WSW | 245 9.5 19.1 138.2
3/2/24 - 1200 10.5 -10.7 92 8.5 10.2 SW | 228 26.8 68.2 W | 279 9.6 19.1 138.2
3/2/24 - 1100 11.1 -9.9 92 9.2 10.8 SW | 229 26.9 76.2 SW | 221 10.8 19.1 138.2
3/2/24 - 1000 11.4 -12.1 92 9.6 11.1 SW | 226 36.5 69.4 WSW | 243 10.9 19.1 138.2
3/2/24 - 0900 11.4 -13.3 92 9.6 11.2 SW | 226 41.9 106.9 WSW | 246 10.9 19.1 138.2
3/2/24 - 0800 11.4 -14.5 92 9.5 11.1 SW | 226 47.7 111.7 SW | 233 10.9 19.1 138.2
3/2/24 - 0700 13.2 -10.8 93 11.5 12.9 SW | 225 42.2 90.9 WSW | 248 12.4 19.1 138.2
3/2/24 - 0600 14.4 -10.6 93 12.8 14.0 SW | 225 49.8 117.9 SW | 214 13.0 19.1 138.2
3/2/24 - 0500 16.8 -7.6 94 15.5 16.4 SW | 223 52.1 138.2 WSW | 239 15.4 19.1 138.2
3/2/24 - 0400 18.3 -4.0 95 17.2 17.9 SSW | 209 43.7 106.5 SSW | 199 17.8 19.1 110.8
3/2/24 - 0300 18.5 -3.7 96 17.4 18.1 SSW | 205 43.4 99.0 SW | 233 18.4 19.1 110.8
3/2/24 - 0200 18.7 -2.1 96 17.7 18.4 SSW | 196 37.1 96.3 SW | 219 18.5 19.1 110.8
3/2/24 - 0100 18.8 -2.8 96 17.8 18.5 SSW | 202 41.3 110.8 WSW | 240 18.6 19.1 110.8
3/2/24 - 0000 18.4 -4.1 96 17.4 18.1 SSW | 206 45.3 103.7 SSW | 200 17.8 21.7 103.8
3/1/24 - 2300 18.7 -0.4 96 17.6 18.3 S | 172 29.8 81.9 SW | 226 17.8 21.7 103.8
3/1/24 - 2200 18.6 -2.4 96 17.6 18.2 SSW | 196 37.7 87.8 SW | 229 17.8 21.7 103.8
3/1/24 - 2100 18.2 0.5 95 17.1 17.9 S | 169 24.4 81.8 S | 171 17.8 21.7 103.8
3/1/24 - 2000 18.0 -2.0 95 16.9 17.6 S | 170 32.3 103.8 SE | 145 17.8 21.7 103.8
3/1/24 - 1900 18.4 -1.0 95 17.3 18.1 S | 178 30.8 91.6 SSE | 150 17.8 21.7 102.6
3/1/24 - 1800 19.3 -1.0 96 18.4 19.0 SSW | 196 36.0 94.7 SW | 222 17.9 21.7 102.6
3/1/24 - 1700 19.5 -1.1 96 18.4 19.1 SSW | 196 37.5 90.1 SW | 235 17.9 21.7 102.6
3/1/24 - 1600 21.2 0.8 97 20.4 20.9 SSW | 195 39.6 82.3 SSW | 205 17.9 21.7 102.6
3/1/24 - 1500 21.4 3.9 97 20.6 21.0 S | 190 27.2 72.9 WSW | 238 17.9 21.7 102.6
3/1/24 - 1400 21.2 1.6 97 20.5 20.9 SSW | 195 36.2 102.6 SW | 230 17.9 21.7 102.6
3/1/24 - 1300 21.0 1.8 97 20.2 20.7 SSW | 197 33.7 74.2 SW | 235 17.9 21.4 82.2
3/1/24 - 1200 21.2 3.2 97 20.4 20.9 S | 184 29.1 75.6 WSW | 238 17.9 21.4 82.2
3/1/24 - 1100 20.7 3.0 97 19.8 20.3 S | 187 27.0 67.3 SSW | 201 17.9 21.1 82.2
3/1/24 - 1000 20.2 1.3 96 19.3 19.8 S | 189 30.9 78.9 SW | 228 17.9 20.4 82.2
3/1/24 - 0900 19.8 3.1 96 18.9 19.5 S | 178 22.8 67.6 SSW | 196 17.9 20.3 82.2
3/1/24 - 0800 19.2 1.5 96 18.2 18.8 S | 170 25.2 82.2 SE | 145 17.9 19.4 82.2
3/1/24 - 0700 18.9 0.3 96 17.9 18.6 SSW | 201 28.1 59.1 SSW | 205 17.9 19.1 81.9
3/1/24 - 0600 18.4 1.2 96 17.4 18.1 S | 188 22.9 56.6 SSW | 203 17.9 19.1 81.9
3/1/24 - 0500 18.4 1.2 95 17.3 18.1 S | 169 22.9 72.7 SE | 125 17.9 19.1 81.9
3/1/24 - 0400 18.4 -1.2 95 17.3 18.0 SSE | 161 31.1 75.8 ESE | 110 17.9 19.1 81.9
3/1/24 - 0300 18.6 -1.1 96 17.6 18.3 SSE | 162 32.5 81.9 SE | 142 18.4 19.1 81.9
3/1/24 - 0200 18.8 -0.1 96 17.8 18.4 SSE | 148 28.9 70.0 SE | 137 18.4 19.1 70.0
3/1/24 - 0100 18.6 2.7 96 17.5 18.2 S | 183 19.0 58.4 ESE | 121 18.4 18.7 58.4
3/1/24 - 0000 18.9 -3.4 96 17.9 18.6 SW | 219 45.1 69.6 S | 183 18.4 24.2 79.4
2/29/24 - 2300 19.8 -3.0 96 18.8 19.4 SW | 226 49.5 79.3 SW | 234 19.2 24.2 79.4
2/29/24 - 2200 20.7 -1.5 96 19.8 20.3 SW | 224 48.4 75.0 SW | 229 19.8 24.2 79.4
2/29/24 - 2100 21.0 -0.8 97 20.2 20.7 SW | 224 47.2 73.3 SW | 228 19.8 24.2 79.4
2/29/24 - 2000 21.2 -0.7 97 20.5 20.9 SW | 218 48.5 72.0 SW | 227 19.8 24.2 79.4
2/29/24 - 1900 21.9 0.2 97 21.2 21.6 SW | 214 48.7 78.5 SW | 222 19.8 24.2 79.4
2/29/24 - 1800 22.3 1.4 97 21.6 22.0 SSW | 212 44.5 74.9 WSW | 244 19.8 24.2 79.4
2/29/24 - 1700 22.4 1.2 97 21.7 22.0 SSW | 213 46.6 79.4 WSW | 237 19.8 24.2 79.4
2/29/24 - 1600 22.5 2.3 97 21.9 22.2 SSW | 208 41.8 73.2 SW | 222 19.8 24.2 79.4
2/29/24 - 1500 23.0 2.2 98 22.4 22.7 SSW | 213 46.4 79.4 SW | 217 19.8 24.2 79.4
2/29/24 - 1400 23.3 2.6 98 22.8 23.0 SSW | 210 46.2 75.5 SW | 222 19.8 24.2 75.5
2/29/24 - 1300 23.1 3.0 98 22.5 22.8 SSW | 213 42.3 70.6 SW | 235 19.8 24.2 70.6
2/29/24 - 1200 22.4 2.0 97 21.7 22.1 SW | 218 42.0 65.2 SW | 224 19.8 24.2 69.4
2/29/24 - 1100 21.7 0.8 97 21.0 21.4 SW | 219 43.6 65.2 SW | 221 19.8 24.2 69.4
2/29/24 - 1000 20.5 -1.1 96 19.5 20.1 SW | 223 44.7 69.4 SW | 224 19.8 24.2 69.4
2/29/24 - 0900 20.2 -1.2 92 18.1 19.5 SW | 221 43.1 63.9 SW | 215 19.8 24.2 63.9
2/29/24 - 0800 21.1 -0.6 85 17.2 19.9 SW | 223 46.4 61.7 SSW | 213 20.5 24.2 61.7
2/29/24 - 0700 21.2 -0.7 83 16.8 19.9 SW | 220 48.4 60.9 SSW | 208 20.5 24.2 61.5
2/29/24 - 0600 21.3 -1.0 80 16.1 19.7 SW | 219 50.6 61.5 SW | 219 20.5 24.2 61.5
2/29/24 - 0500 20.7 0.1 86 17.1 19.6 SW | 222 39.9 57.4 SSW | 212 20.5 24.2 57.4
2/29/24 - 0400 21.6 2.3 77 15.6 19.9 SW | 225 35.5 53.9 SW | 214 21.0 24.2 54.4
2/29/24 - 0300 22.2 3.3 75 15.6 20.3 SW | 220 34.5 45.9 SW | 228 21.9 24.2 54.4
2/29/24 - 0200 22.9 3.5 70 14.6 20.6 SW | 214 38.3 47.5 SSW | 205 22.1 24.2 54.4
2/29/24 - 0100 23.8 3.2 59 11.8 20.6 SSW | 210 47.4 54.4 SSW | 205 23.6 24.2 54.4
2/29/24 - 0000 23.5 3.5 74 16.4 21.4 SW | 218 42.5 54.4 SW | 214 23.1 31.6 54.4
2/28/24 - 2300 23.5 4.3 85 19.7 22.3 SW | 217 38.1 47.4 SW | 216 23.1 31.6 49.7
2/28/24 - 2200 23.3 4.4 93 21.6 22.7 SW | 224 36.5 48.7 SW | 222 23.1 31.6 49.7
2/28/24 - 2100 23.4 5.1 96 22.3 22.9 SW | 226 33.4 49.7 SSW | 204 23.1 31.6 49.7
2/28/24 - 2000 23.8 5.2 94 22.4 23.2 SW | 221 35.5 47.6 SSW | 209 23.1 31.6 47.6
2/28/24 - 1900 24.8 6.3 93 23.0 24.1 SW | 218 37.0 47.6 SW | 215 23.1 31.6 47.6
2/28/24 - 1800 25.6 8.3 88 22.6 24.5 SW | 221 32.4 46.1 SW | 220 23.1 31.6 47.2
2/28/24 - 1700 28.0 12.2 72 20.0 25.4 SW | 223 30.2 41.1 SW | 216 23.1 31.6 47.2
2/28/24 - 1600 29.6 14.8 64 18.7 26.1 SW | 227 27.8 47.2 SW | 216 23.1 31.6 47.2
2/28/24 - 1500 30.0 15.5 61 18.2 26.2 SW | 225 27.0 45.1 SSW | 207 23.1 31.6 45.1
2/28/24 - 1400 29.7 14.7 63 18.6 26.2 SW | 231 29.0 40.9 SW | 227 23.1 31.6 40.9
2/28/24 - 1300 30.9 17.4 52 15.4 26.2 SW | 225 24.3 36.0 WSW | 237 23.1 31.6 37.2
2/28/24 - 1200 31.3 19.9 50 14.8 26.3 SW | 227 17.2 26.8 SW | 216 23.1 31.6 37.2
2/28/24 - 1100 30.2 15.7 50 14.0 25.4 SW | 215 27.8 36.0 SSW | 207 23.1 30.7 37.2
2/28/24 - 1000 28.6 12.7 51 12.6 24.0 SW | 222 31.5 37.2 SW | 224 23.1 29.8 37.2
2/28/24 - 0900 27.7 11.5 52 12.2 23.4 SW | 224 31.4 36.8 SW | 226 23.1 28.3 37.2
2/28/24 - 0800 26.4 10.2 56 12.8 22.6 SW | 224 28.8 35.7 SW | 216 23.1 27.1 37.2
2/28/24 - 0700 24.3 6.6 56 10.8 20.7 SSW | 209 32.4 37.2 SSW | 208 23.1 25.4 37.2
2/28/24 - 0600 24.0 6.5 58 11.2 20.6 SSW | 207 31.4 35.0 SSW | 207 23.1 24.4 35.5
2/28/24 - 0500 23.7 5.7 58 10.9 20.3 SSW | 209 32.7 35.5 SSW | 212 23.1 24.3 35.5
2/28/24 - 0400 23.8 7.0 54 9.8 20.1 SSW | 211 27.6 31.4 SSW | 200 23.1 24.3 31.8
2/28/24 - 0300 23.8 6.9 58 11.3 20.5 SW | 225 28.4 30.8 SW | 227 23.3 24.1 31.8
2/28/24 - 0200 23.6 6.7 63 12.7 20.6 SW | 228 27.8 31.8 SW | 225 23.3 23.7 31.8
2/28/24 - 0100 23.4 7.2 65 13.3 20.6 SW | 233 25.0 29.2 SW | 232 23.3 23.4 29.2
2/28/24 - 0000 23.2 7.1 73 15.7 21.0 SW | 233 24.0 29.7 WSW | 241 15.2 28.5 76.8
2/27/24 - 2300 23.2 8.1 84 19.2 21.9 SW | 234 21.1 30.8 WSW | 246 15.2 28.5 76.8
2/27/24 - 2200 22.3 14.5 92 20.4 21.6 SW | 228 6.2 23.8 WSW | 242 15.2 28.5 76.8
2/27/24 - 2100 20.5 14.7 94 19.0 20.0 SE | 137 4.1 8.4 SE | 137 15.2 28.5 76.8
2/27/24 - 2000 20.3 9.4 94 18.9 19.8 E | 94 9.8 15.2 E | 97 15.2 28.5 76.8
2/27/24 - 1900 21.0 12.2 95 19.8 20.6 E | 83 7.1 11.5 E | 85 15.2 28.5 76.8
2/27/24 - 1800 22.8 14.8 95 21.7 22.4 NE | 53 6.5 10.3 NE | 50 15.2 28.5 76.8
2/27/24 - 1700 26.7 18.8 98 26.2 26.4 NE | 51 7.4 11.4 ENE | 58 15.2 28.5 76.8
2/27/24 - 1600 24.5 14.0 98 23.9 24.2 NE | 47 10.7 15.7 NE | 52 15.2 26.4 76.8
2/27/24 - 1500 23.8 11.8 96 23.0 23.4 NE | 49 13.5 25.7 NE | 36 15.2 25.7 76.8
2/27/24 - 1400 24.5 11.6 97 23.9 24.2 E | 86 16.0 30.2 NNE | 15 15.2 25.7 76.8
2/27/24 - 1300 23.9 14.5 96 23.0 23.5 E | 93 8.7 25.9 NNE | 24 15.2 25.1 76.8
2/27/24 - 1200 24.4 14.5 97 23.7 24.0 ESE | 102 9.6 19.8 ESE | 110 15.2 24.8 76.8
2/27/24 - 1100 21.7 13.0 96 20.8 21.3 ENE | 77 7.0 14.6 NE | 52 15.2 23.8 76.8
2/27/24 - 1000 19.2 13.0 95 18.0 18.8 WNW | 294 4.2 14.3 NW | 308 15.2 20.2 76.8
2/27/24 - 0900 18.0 6.5 95 16.8 17.6 WSW | 250 9.8 18.8 SSW | 193 15.2 20.0 76.8
2/27/24 - 0800 16.1 0.2 94 14.8 15.8 SW | 216 17.4 29.1 WNW | 297 15.2 20.0 76.8
2/27/24 - 0700 15.3 -2.8 94 13.9 15.0 W | 269 22.4 41.4 W | 270 15.2 20.0 76.8
2/27/24 - 0600 15.6 -0.2 94 14.0 15.2 SSW | 204 16.5 32.8 WSW | 250 15.2 20.0 76.8
Max 31.3 19.9 98 26.2 26.4 - 64.8 138.2 - 23.6 31.6 138.2
Avg 17.9 -1.7 89 15.0 17.1 - 32.7 58.0 - - - -
Min 8.6 -17.0 50 6.5 8.4 - 4.1 8.4 - 8.4 11.6 29.2

Last 365 Observations

Top of 22 - 10,067ft

Daily Data | America/Los_Angeles
as of 3/5/24 5:02 AM PST
Date Daily Max Temp (°F) Time of Max Temp Daily Min Temp (°F) Time of Min Temp Wind Spd (mph) Daily Max Wind (mph) Time of Max Wind Max Wind Dir (°) Dew Pt (°F) Max RH (%) Min RH (%) Wet Bulb (°F) Max Wet Bulb Temp (°F) Min Wet Bulb Temp (°F) WetB Hrs <28F (hrs) Hrs <= 32F (hrs) Min Wind Chill (°F) Wind Chill Time Heat Index Max (°F) Heat Index Max Time
3/4/24 18.8 1929 8.4 0656 33.8 68.8 0039 SW | 224 12.6 96 90 13.8 18.5 8.2 - - -20.1 0737 - -
3/3/24 13.5 0005 9.2 0401 37.3 87.8 1942 WSW | 238 9.3 93 91 10.9 13.2 9.0 - - -19.9 2220 - -
3/2/24 19.1 0056 9.0 1754 36.4 138.2 0451 WSW | 239 10.9 96 91 12.3 18.8 8.8 - - -23.4 1348 - -
3/1/24 21.7 1345 17.8 1901 30.4 103.8 1909 SE | 145 18.4 97 95 19.0 21.4 17.4 - - -12.6 1909 - -
2/29/24 24.2 0022 18.4 2359 44.6 79.4 1444 SW | 217 19.0 98 53 20.8 23.2 18.0 - - -7.5 2320 - -
2/28/24 31.6 1212 23.1 0358 30.7 54.4 2357 SW | 214 16.1 97 46 23.2 27.0 19.6 - - 1.8 2015 - -
2/27/24 28.5 1636 15.2 0556 19.3 76.8 0040 WSW | 249 19.4 100 66 20.4 28.4 14.8 23.9 - -8.0 0317 - -
2/26/24 24.4 1004 19.9 2358 47.2 79.2 0737 SW | 218 20.4 98 73 21.5 23.5 19.1 - - -6.3 2356 - -
2/25/24 34.5 1226 22.4 2358 27.5 57.6 2210 SW | 218 11.0 99 17 23.9 28.4 21.0 23.9 19.7 -0.5 2351 - -
2/24/24 35.5 1322 21.8 0001 11.4 39.0 2202 SSW | 211 14.2 88 37 24.3 29.4 20.0 19.9 18.2 10.4 2209 - -
2/23/24 31.5 1530 18.2 0326 3.6 14.6 1735 NNW | 345 20.2 95 70 22.0 30.5 16.9 20.0 - 7.1 0650 - -
2/22/24 30.4 1625 13.7 0312 3.7 17.1 0822 SSW | 204 19.0 99 90 19.9 30.1 13.4 22.4 - 1.4 0732 - -
2/21/24 20.4 1442 14.8 0659 21.8 48.5 0721 SW | 216 15.9 97 92 16.8 20.0 14.4 - - -10.1 0659 - -
2/20/24 24.0 1252 16.7 0139 19.6 48.5 2320 SSW | 198 18.5 98 94 19.2 23.6 16.3 - - -5.8 0103 - -
2/19/24 26.2 0104 16.8 2220 26.2 84.5 0937 SW | 221 21.1 99 94 21.6 25.9 16.4 - - -6.1 1534 - -
2/18/24 25.7 2302 18.2 0854 29.8 62.8 1650 SW | 222 21.5 98 90 22.2 25.0 17.8 - - -4.2 0844 - -
2/17/24 28.7 1131 21.1 1744 26.0 74.4 1350 SW | 218 20.8 98 63 23.4 26.7 20.7 - - -3.4 1443 - -
2/16/24 35.6 1330 20.5 0040 15.1 35.4 1426 SW | 223 17.2 88 51 24.8 30.6 17.5 21.0 19.8 1.0 0027 - -
2/15/24 21.8 1333 15.8 0709 25.0 78.6 0502 SW | 221 16.5 96 60 18.7 21.2 15.3 - - -11.2 0710 - -
2/14/24 23.4 0830 18.8 2128 40.5 74.6 2102 SW | 218 14.1 96 53 19.2 21.4 16.8 - - -7.3 2114 - -
2/13/24 26.9 1221 19.3 2003 34.1 55.4 1518 SW | 219 4.5 84 23 18.7 21.5 16.1 - - -3.2 2142 - -
2/12/24 35.6 1217 18.5 0642 15.7 36.6 1903 SSW | 207 8.4 86 23 21.2 28.5 15.1 23.9 21.4 4.0 0608 - -
2/11/24 31.6 1510 17.9 0001 5.2 15.9 1529 NNW | 330 23.4 100 60 24.2 31.5 17.5 17.0 - 4.7 0001 - -
2/10/24 21.8 1357 3.7 0700 14.4 56.0 0039 NNE | 17 10.3 97 88 11.8 21.5 3.7 - - -20.9 0039 - -
2/9/24 21.0 1531 8.4 0320 16.2 56.5 2241 NNE | 14 11.8 97 89 13.2 20.6 8.2 - - -17.8 2241 - -
2/8/24 22.7 1127 10.1 0141 14.1 41.2 0154 WSW | 244 12.7 97 91 14.0 22.4 9.8 - - -15.2 0154 - -
2/7/24 15.4 2130 10.7 2353 27.9 66.0 1237 SW | 225 12.8 95 92 14.0 15.1 10.4 - - -13.5 2339 - -
2/6/24 25.7 1139 15.0 2152 9.7 35.5 0850 WSW | 242 18.0 100 94 18.6 25.5 14.7 - - -3.9 2328 - -
2/5/24 20.4 1451 15.6 0752 13.1 70.1 0044 S | 190 17.5 96 94 18.2 20.0 15.3 - - -8.6 0640 - -
2/4/24 26.0 1225 15.5 0006 18.1 97.3 1859 SW | 234 21.7 99 94 22.1 25.8 15.1 - - -5.7 2030 - -
2/3/24 15.7 2301 9.4 0821 23.1 55.2 0206 WSW | 245 10.9 94 90 12.4 15.3 9.1 - - -16.5 0443 - -
2/2/24 17.4 1403 11.8 2326 31.8 59.2 2242 WSW | 248 13.1 95 92 14.4 17.0 11.6 - - -15.4 2346 - -
2/1/24 24.6 0456 15.4 2359 25.7 69.4 0613 SSW | 199 19.7 98 93 20.3 24.3 15.0 - - -4.9 1909 - -
1/31/24 34.1 1013 23.2 2358 32.6 81.7 1732 SW | 220 17.4 98 35 25.3 28.2 22.8 24.0 20.6 -0.6 1908 - -
1/30/24 43.2 1054 31.6 0044 16.3 52.6 2142 SW | 215 16.8 72 32 30.0 35.5 26.4 4.2 0.4 15.7 2142 - -
1/29/24 44.9 1555 29.5 0627 4.1 16.0 0119 ENE | 69 22.8 79 44 31.1 37.0 26.8 1.9 6.3 20.6 0119 - -
1/28/24 42.9 1607 30.9 0725 6.3 16.6 0442 NNW | 341 24.6 77 49 31.6 36.5 28.5 0.0 2.2 20.3 0656 - -
1/27/24 45.5 1207 33.4 0225 4.0 12.1 0315 N | 1 25.9 72 42 33.6 38.5 30.1 0.0 0.0 25.4 0224 - -
1/26/24 41.6 1333 18.8 0001 5.0 17.5 1548 E | 101 25.0 97 50 28.7 36.0 18.2 8.3 9.8 4.7 0002 - -
1/25/24 23.9 0001 15.4 0816 13.7 59.9 0306 SW | 216 18.1 98 91 18.9 23.7 15.0 - - -7.8 0716 - -
1/24/24 28.4 0947 19.3 0323 30.9 54.0 2353 SW | 224 24.7 100 93 24.8 28.2 18.8 22.4 - -3.7 0400 - -
1/23/24 30.6 1610 17.4 0643 4.4 26.0 2348 WSW | 244 22.3 100 94 22.7 30.4 17.0 19.0 - 2.3 2348 - -
1/22/24 30.7 1213 21.6 0003 12.5 59.9 0046 SW | 215 24.9 100 97 25.1 30.6 21.2 18.5 - -2.0 0046 - -
1/21/24 26.8 1224 19.0 0024 27.2 67.0 2153 SSW | 196 22.3 99 95 22.7 26.6 18.5 - - -3.2 0040 - -
1/20/24 25.2 1049 18.8 2347 30.1 64.4 0757 SSW | 202 21.7 98 94 22.2 24.9 18.4 - - -3.5 2220 - -
1/19/24 36.5 0910 22.5 2220 23.7 62.0 2132 SW | 214 16.3 96 37 26.3 29.8 21.5 18.1 9.2 -0.3 2210 - -
1/18/24 39.2 1517 26.1 0209 5.2 29.9 2359 WSW | 239 18.2 73 32 28.4 33.3 21.2 8.8 8.8 15.3 0120 - -
1/17/24 29.8 2348 18.6 0900 34.9 71.8 0412 SW | 226 16.6 99 30 21.8 26.9 18.1 - - -6.9 0950 - -
1/16/24 34.3 0910 24.2 2059 37.4 69.5 1330 SW | 220 17.3 99 33 25.5 28.2 23.8 24.0 21.3 0.8 2055 - -
1/15/24 34.1 1535 23.7 0534 11.4 32.6 1251 NW | 305 17.2 90 43 24.8 30.1 20.8 20.1 20.1 5.9 0329 - -
1/14/24 26.1 1532 20.6 0757 25.2 59.7 0423 SW | 222 22.0 98 88 22.6 25.7 20.2 - - -2.1 0002 - -
1/13/24 28.5 0529 20.1 1935 35.2 74.3 2114 SW | 227 22.1 99 76 23.3 27.4 19.7 - - -5.2 2019 - -
1/12/24 24.0 2359 16.2 0033 24.3 65.1 1526 SW | 222 11.7 88 39 18.9 22.6 15.3 - - -3.3 1526 - -
1/11/24 20.5 1531 0.5 0742 19.3 65.7 2236 NW | 311 8.7 95 83 10.8 20.0 0.7 - - -24.4 0716 - -
1/10/24 16.2 0010 11.0 2359 43.5 99.9 1501 SW | 233 10.5 94 57 13.7 15.5 10.7 - - -16.2 0905 - -
1/9/24 26.8 0436 15.3 2300 33.4 67.0 1906 SW | 222 12.9 97 44 20.2 23.2 13.5 - - -10.2 2301 - -
1/8/24 25.1 2359 1.7 0018 17.8 58.2 1400 WSW | 246 14.4 97 67 16.1 24.3 1.8 - - -21.0 0123 - -
1/7/24 12.5 1543 -0.3 0524 12.9 31.5 0413 SSW | 192 1.6 91 85 4.4 12.2 -0.1 - - -25.8 0413 - -
1/6/24 19.9 0503 5.1 2359 29.6 117.7 1423 SW | 226 3.4 91 32 12.2 15.2 5.0 - - -24.1 1433 - -
1/5/24 21.4 1355 13.5 1901 14.3 47.4 0941 N | 2 10.4 95 42 15.8 19.4 11.0 - - -7.0 1101 - -
1/4/24 20.4 1536 9.0 0353 9.3 30.9 1238 N | 2 13.1 95 87 14.7 19.9 8.7 - - -9.5 0407 - -
1/3/24 17.3 0002 11.0 0832 22.7 55.0 0235 SW | 226 11.2 93 90 12.8 16.8 10.7 - - -16.0 0827 - -
1/2/24 25.1 1345 17.3 2355 31.6 60.2 1001 SW | 228 13.6 93 55 19.8 22.2 16.8 - - -6.7 2315 - -
1/1/24 29.3 1515 18.6 0711 2.5 13.2 1152 E | 96 14.4 90 56 20.2 25.4 17.1 - - 8.0 0702 - -
12/31/23 28.8 1053 17.8 0127 5.7 25.5 1555 SSW | 205 7.3 88 11 18.5 25.3 14.4 - - 5.8 1555 - -
12/30/23 27.4 1249 19.3 2059 12.6 62.5 0003 SSW | 207 19.2 97 50 21.5 26.0 18.4 - - -3.5 0435 - -
12/29/23 37.0 1110 26.0 2359 24.4 61.9 2222 SE | 141 10.6 58 19 26.7 29.6 22.0 16.9 5.4 5.6 2359 - -
12/28/23 40.4 1249 28.4 0121 18.5 44.0 0247 SW | 217 20.9 91 34 29.2 33.6 26.7 6.4 9.6 11.0 0118 - -
12/27/23 34.1 0243 25.6 2213 33.8 65.0 1517 SW | 215 1.4 87 19 22.9 28.0 20.0 - 22.4 6.0 1638 - -
12/26/23 35.0 2324 30.7 1625 21.0 50.4 1123 SW | 233 7.9 70 18 26.2 29.8 23.1 22.0 4.5 13.6 1623 - -
12/25/23 38.4 1453 27.5 0757 8.0 29.3 1816 SW | 232 25.4 92 58 29.4 34.2 25.8 8.5 11.0 13.7 0127 - -
12/24/23 30.8 1409 19.5 0500 12.1 32.1 0500 NW | 311 24.0 99 89 24.6 30.5 19.2 20.5 - 0.1 0500 - -
12/23/23 30.4 1405 17.5 0149 4.6 20.0 0742 NNW | 344 22.0 100 95 22.3 30.2 17.2 20.3 - 2.5 0117 - -
12/22/23 30.6 1530 20.6 2359 5.3 17.9 1853 NNW | 346 24.8 100 96 24.9 30.5 20.2 20.1 - 9.4 1922 - -
12/21/23 30.9 1425 24.2 0801 4.7 19.9 1031 ENE | 61 27.4 100 98 27.4 30.8 23.9 16.4 - 12.7 2343 - -
12/20/23 31.2 1257 23.2 0757 6.7 42.8 0028 ESE | 120 27.0 100 98 27.0 31.1 22.9 16.7 - 4.2 0028 - -
12/19/23 28.3 0026 24.0 1903 29.0 72.9 1238 SW | 219 26.2 100 98 26.1 28.2 23.8 23.7 - 3.0 1327 - -
12/18/23 39.1 0001 27.5 2357 36.1 77.8 1555 SSW | 208 28.0 100 22 29.9 31.7 26.8 1.5 20.4 6.2 2351 - -
12/17/23 47.2 1046 35.4 0023 8.7 29.7 2348 SSW | 207 4.2 35 16 29.5 35.5 26.0 9.0 0.0 27.5 2359 - -
12/16/23 47.9 1518 34.5 2120 13.2 39.1 0419 SW | 220 -4.2 26 7 28.4 34.4 25.6 13.2 0.0 21.7 0419 - -
12/15/23 46.1 1132 33.0 0001 3.0 25.1 0141 SW | 230 -2.4 33 7 27.9 34.3 23.7 14.2 0.0 21.8 0141 - -
12/14/23 40.5 1248 26.8 0121 4.8 28.4 0322 SW | 233 -7.1 30 9 23.7 29.8 20.0 21.2 14.5 14.5 0230 - -
12/13/23 34.5 1531 15.9 0143 6.8 22.1 0102 NNE | 19 8.6 92 26 20.2 27.6 15.3 - 22.6 -1.1 0144 - -
12/12/23 32.7 1148 16.3 2357 7.5 27.0 1642 N | 7 13.4 96 37 21.9 27.6 15.8 - 23.2 0.9 2336 - -
12/11/23 37.9 1211 24.4 2336 24.0 53.6 1356 SSW | 209 3.6 60 9 25.6 28.7 20.5 20.8 7.6 15.0 1808 - -
12/10/23 48.0 1130 34.0 0305 13.7 31.9 2315 SW | 215 7.4 68 12 30.3 36.0 26.2 3.2 0.0 24.2 2315 - -
12/9/23 42.4 1308 29.4 0249 5.0 22.5 1848 NNE | 15 8.1 60 17 27.9 32.8 22.2 9.8 6.0 21.3 0251 - -
12/8/23 37.2 1519 16.1 0110 9.0 45.2 0456 SW | 229 -4.3 69 14 19.7 28.3 12.9 23.9 20.1 -3.7 0006 - -
12/7/23 22.3 0046 16.0 0812 39.9 71.1 0100 SW | 221 17.5 97 65 18.6 21.9 14.6 - - -9.3 2204 - -
12/6/23 38.8 0002 20.8 2204 39.6 89.2 2258 SW | 232 19.2 97 36 26.3 31.3 20.4 17.6 13.1 -5.9 2247 - -
12/5/23 46.5 1305 32.1 0003 7.6 33.3 2341 SSW | 209 17.1 56 30 31.7 36.7 26.8 2.1 0.0 25.4 0648 - -
12/4/23 40.7 1329 28.8 0706 7.3 21.1 0102 SW | 222 15.5 62 27 27.8 33.2 24.2 16.0 11.9 18.4 0717 - -
12/3/23 37.1 0914 25.0 0132 16.8 57.7 0323 NW | 318 12.1 67 31 26.3 30.3 21.4 19.8 10.0 5.4 0012 - -
12/2/23 28.6 1530 19.8 0004 27.3 57.2 2121 WSW | 237 11.3 84 40 20.8 25.0 17.8 - - 1.4 2044 - -
12/1/23 25.9 1327 15.2 0549 18.2 56.2 0256 W | 269 16.3 95 68 19.0 25.1 14.7 - - -9.8 0256 - -
11/30/23 23.2 1123 16.3 2351 24.3 47.5 2329 SSW | 207 15.8 95 62 18.3 20.9 15.9 - - -7.5 2349 - -
11/29/23 33.6 1321 20.0 1943 15.0 47.9 0451 SW | 220 9.1 82 26 20.7 27.2 17.2 - 22.0 -0.8 0445 - -
11/28/23 35.6 1017 25.7 2106 16.3 39.5 1602 SSW | 205 -4.4 47 12 22.0 27.0 18.8 - 19.1 7.8 1641 - -
11/27/23 31.7 1504 17.5 0508 5.0 18.0 0156 N | 4 -8.5 50 11 17.4 23.8 13.0 - - 2.2 0156 - -
11/26/23 33.6 1330 18.7 2301 7.0 16.8 1424 NE | 52 -6.7 49 12 18.3 25.7 14.0 - 22.2 6.5 2309 - -
11/25/23 28.3 1522 16.8 0644 2.9 12.4 1510 E | 100 -1.6 56 14 16.4 22.5 12.4 - - 8.5 0652 - -
11/24/23 26.1 1358 10.1 0643 5.6 17.6 0407 NW | 322 9.9 96 30 16.0 22.8 9.6 - - -5.6 0651 - -
11/23/23 39.4 0038 18.0 2357 16.1 41.5 1016 SW | 219 19.0 98 17 26.1 31.0 17.5 12.5 14.8 2.9 2320 - -
11/22/23 49.5 1035 36.8 1957 7.1 27.2 1254 SW | 228 7.7 42 16 31.8 37.0 28.5 0.0 0.0 27.4 1834 - -
11/21/23 52.2 1512 33.3 0125 2.4 17.4 1053 SW | 221 -0.2 33 7 31.2 37.8 23.8 4.5 0.0 24.7 0103 - -
11/20/23 43.0 1356 21.6 0002 18.9 41.1 0002 NNE | 13 -6.4 64 10 24.7 31.6 17.8 19.1 8.0 1.3 0002 - -
11/19/23 30.4 1309 15.6 0624 24.6 113.7 0053 SSW | 204 20.7 100 45 21.9 30.2 15.2 20.1 - -9.9 0544 - -
11/18/23 28.1 1049 24.6 0331 25.0 80.5 2355 WSW | 240 25.8 100 93 25.9 27.9 24.3 - - 0.5 2355 - -
11/17/23 34.9 1312 24.5 0638 7.7 41.0 2338 S | 183 25.3 97 55 27.0 32.7 24.0 18.2 20.9 8.8 2338 - -
11/16/23 32.9 1259 25.3 2333 12.7 54.5 0633 SSW | 204 26.8 100 60 28.1 32.2 23.3 10.4 21.6 5.8 0639 - -
11/15/23 38.8 1030 26.6 1755 19.6 66.0 1927 S | 184 20.8 100 24 29.0 34.5 24.4 9.1 13.4 10.5 2300 - -
11/14/23 37.5 1201 27.9 0013 24.4 49.2 1416 SW | 219 7.7 42 28 25.5 29.9 22.2 19.7 9.3 9.1 0103 - -
11/13/23 37.3 1328 27.7 2341 34.1 69.2 0126 SW | 214 8.2 50 27 25.0 30.0 22.5 19.9 16.5 8.1 2324 - -
11/12/23 40.6 1106 29.7 2359 25.1 60.4 2336 SW | 215 7.7 42 17 27.5 31.4 23.2 13.5 5.8 10.1 2336 - -
11/11/23 49.1 1548 32.4 0346 8.8 35.2 0447 SW | 231 10.9 51 22 29.4 36.5 26.0 12.0 0.0 17.6 0349 - -
11/10/23 43.1 1354 29.1 0010 6.5 24.0 0512 WSW | 253 1.4 43 7 25.7 33.2 21.0 17.1 12.8 16.2 0308 - -
11/9/23 36.0 1205 16.3 0033 9.7 28.0 1347 SW | 233 -5.2 69 11 20.6 28.0 13.9 - 18.3 0.2 0033 - -
11/8/23 25.7 1522 16.4 0656 16.4 30.8 1944 SW | 222 15.8 97 50 18.2 24.4 14.3 - - -3.5 1938 - -
11/7/23 27.0 0037 19.4 2322 22.1 48.9 0451 SW | 224 21.5 99 94 22.0 26.8 19.0 - - 0.1 0632 - -
11/6/23 35.2 0041 26.4 2315 34.5 75.7 0419 SW | 219 27.7 100 66 28.9 32.9 26.0 7.4 22.3 6.4 1429 - -
11/5/23 44.3 1244 33.5 2349 36.6 69.6 2019 SSW | 202 21.2 84 31 32.0 37.5 28.4 0.0 0.0 14.4 2350 - -
11/4/23 50.1 1341 38.1 0050 31.0 53.9 2046 SW | 236 24.9 64 34 36.2 39.6 32.7 0.0 0.0 23.4 0039 - -
11/3/23 58.3 1309 39.8 0605 11.7 30.1 1454 SW | 216 18.7 54 16 36.3 42.9 30.5 0.0 0.0 33.3 0022 - -
11/2/23 55.4 1534 39.1 0013 16.5 33.9 1151 SSW | 209 4.4 43 12 33.2 39.0 30.3 0.0 0.0 31.9 2121 - -
11/1/23 59.0 1405 37.0 0245 4.5 20.3 0059 SW | 222 0.3 20 8 30.0 40.1 27.0 2.0 0.0 32.8 0513 - -
10/31/23 51.5 1414 33.6 0101 2.6 10.5 1406 ESE | 102 -2.3 19 9 29.9 36.4 24.2 8.9 0.0 28.0 0210 - -
10/30/23 50.5 1657 27.2 0118 11.0 23.2 1427 NE | 51 -10.7 19 5 26.8 35.4 19.0 15.7 6.4 14.7 0126 - -
10/29/23 42.0 1542 18.0 0616 15.5 31.8 0359 N | 3 -8.4 32 8 20.8 30.8 12.8 20.0 17.1 -1.2 0605 - -
10/28/23 39.0 1341 14.5 2210 18.7 45.4 0442 SW | 224 -0.4 77 8 21.2 30.5 12.7 20.4 17.7 -3.8 2319 - -
10/27/23 42.0 1631 28.5 0026 24.0 43.3 0333 SW | 218 -3.8 80 4 26.3 33.7 21.8 17.4 4.2 12.4 0025 - -
10/26/23 40.8 1527 23.9 0848 28.9 71.9 0114 SW | 223 20.4 100 25 27.7 33.4 23.6 14.2 11.6 1.9 0852 - -
10/25/23 39.4 1316 26.3 0027 43.7 74.6 1811 SW | 231 21.6 100 26 30.1 33.6 26.0 3.0 6.9 5.0 0028